Showing default

PERSEUS M2, 40037

Orbit data source: Space-Track

PERSEUS M2, 40037 is a payload satellite owned by Canopus Sys (CIS) in SSO that was launched on Thu, 19 Jun 2014 UTC via a DNEPR launch vehicle from the Orenburg, Russia (OREN). Payload-class satellites include a variety of spacecraft equipped with specific instruments for various scientific and technological missions. These include communications satellites like Starlink; space stations such as the ISS; scientific satellites like the Hubble; Earth observation satellites from companies like Planet Labs, Umbra, and HawkEye 360; GPS; miniature CubeSats for education and research; and military/defense satellites.

Loading next visibility...
Identifier
40037, 2014-033AD
Orbit
SSO
Country
Flag of CISCIS
Related business
None
Manufacturer
Canopus Sys
Mission
Operational Commercial Communications
Bus & Motor
CUBESAT 6U, Unknown motor
Mass
~10 kg wet, ~10 kg dry
Launch date (UTC)
2014-06-19 (12 years ago)
Launch vehicle
DNEPR
Launch site
Orenburg, Russia (OREN)
Object type
Payload
Rocket body
Debris
Shape & HBR
Box, 0.1 m
Radar Cross Section
0.105 m², Medium (>0.1 m² and < 1m²)

Expand to show TLE details & history
Last TLE update: 23 hours ago

TLE from 23 hours ago
0 PERSEUS M2
1 40037U 14033AD  26172.47904858  .00001476  00000-0  13865-3 0  9992
2 40037  97.9966 123.1067 0010157 288.3843  71.6273 14.95521249651428
Epoch: 2026-06-21T11:29Z
TLE epoch observation values (Epoch: 2026-06-21T11:29:49.797Z)
Latitude
0.00005°
Longitude
40.97047°
Altitude
581.573 km
Speed
7.571 km/s
True Right ascension
08h 12m 25s
True Declination
0° 00' 00"
Sunlit
Object was in daylight at epoch
Visualization orbit readout
Latitude
Unknown
Longitude
Unknown
Altitude
Unknown
Speed
Unknown
Apparent Right ascension
Unknown
Apparent Declination
Unknown
Sunlit
N/A
Visualization observer readout
Local Sidereal Time
21:41:54
Azimuth
Unknown
Elevation
Unknown
Doppler factor
Unknown
Orbital elements
Apogee altitude
584.845 km
Perigee altitude
570.715 km
Semi-major axis
6,955.917 km
Eccentricity
0.00102
Inclination
97.9966°
RAAN
123.1067°
Arg. of periapsis
288.3843°
True anomaly
71.7378°
Mean anomaly
71.6273°
Eccentric anomaly
71.68255°
Mean motion
3.74121 °/min
Orbital period
96.23 mins
BSTAR
0.00013865
Loading maneuver chart data...
Computing Atmospheric mass density...
Loading historical data...
Loading historical data...
Loading historical data...
Loading historical data...
Loading historical data...
Loading historical data...
Loading historical data...

Documentation

Showing up to 5 results
|